Location: Atherton
(17.2661°S, 145.4859°E)
Time: 23:46:39
(UTC+10:00)

Vanguard 1 - Pass Details

Date: 27 June 2025
Orbit: 649 x 3822 km, 34.2° (Epoch: 17 July)

Event Time Altitude Azimuth Distance (km) Brightness Sun altitude
Rises 19:11:34 0° 284° (WNW) 7,734 16.3 -18.0°
Reaches altitude 10° 19:17:35 10° 279° (W) 6,419 15.4 -19.3°
Maximum altitude 19:35:41 51° 207° (SSW) 2,778 12.3 -23.4°
Enters shadow 19:42:10 28° 146° (SSE) 3,014 12.1 -24.9°
Drops below altitude 10° 19:45:49 10° 132° (SE) 3,750 - -25.7°
Sets 19:48:22 0° 126° (SE) 4,418 - -26.3°
